FW2795 Weather Reports


time (UTC)temp
C
wind
direction
speed
KPH
gust
KPH
rain 1hr
cm
rain 24hr
cm
rain mn
cm
humidity
%
barometer
mb
20260505140300 16 4 1.6 3.2 0.00 0.00 0.00 60 1012.7
20260505124806 17 50 3.2 6.4 0.00 0.00 0.00 53 1013.0
20260505124250 17 278 1.6 3.2 0.00 0.00 0.00 52 1013.0
20260505123750 18 271 3.2 4.8 0.00 0.00 0.00 52 1012.8
20260505122804 18 332 3.2 6.4 0.00 0.00 0.00 52 1013.0
20260505122249 18 309 6.4 11.3 0.00 0.00 0.00 53 1013.0
20260505121749 18 308 4.8 6.4 0.00 0.00 0.00 53 1013.0
20260505120803 17 357 6.4 8.0 0.00 0.00 0.00 52 1013.0
20260505120303 17 355 1.6 3.2 0.00 0.00 0.00 54 1013.1
20260505115803 17 22 3.2 6.4 0.00 0.00 0.00 55 1013.1
20260505114802 16 68 1.6 3.2 0.00 0.00 0.00 59 1013.1
20260505114251 16 71 3.2 6.4 0.00 0.00 0.00 59 1013.2
20260505113751 16 87 1.6 3.2 0.00 0.00 0.00 60 1013.0
20260505112751 16 74 4.8 11.3 0.00 0.00 0.00 56 1013.3
20260505112251 17 62 8.0 12.9 0.00 0.00 0.00 55 1013.3
20260505111805 17 108 0.0 3.2 0.00 0.00 0.00 56 1013.2
20260505110755 17 6 1.6 3.2 0.00 0.00 0.00 58 1013.3
20260505110254 17 33 1.6 3.2 0.00 0.00 0.00 59 1013.3
20260505101756 16 80 1.6 3.2 0.00 0.00 0.00 62 1013.8
20260505101256 16 68 0.0 1.6 0.00 0.00 0.00 63 1013.8
20260505100810 16 67 3.2 6.4 0.00 0.00 0.00 62 1013.6
20260505100310 16 92 3.2 6.4 0.00 0.00 0.00 67 1013.6
20260505095810 15 53 3.2 3.2 0.00 0.00 0.00 71 1013.5
20260505095309 14 358 3.2 3.2 0.00 0.00 0.00 72 1013.6
20260505094809 14 340 1.6 4.8 0.00 0.00 0.00 72 1013.8
20260505094308 14 317 1.6 4.8 0.00 0.00 0.00 72 1013.8
20260505093808 14 3 0.0 3.2 0.00 0.00 0.00 72 1013.8
20260505093258 14 27 0.0 3.2 0.00 0.00 0.00 71 1013.8
20260505092757 15 39 3.2 4.8 0.00 0.00 0.00 69 1013.8
20260505092312 15 91 1.6 4.8 0.00 0.00 0.00 69 1013.7
20260505091756 15 92 1.6 3.2 0.00 0.00 0.00 69 1013.7
20260505091256 15 100 3.2 6.4 0.00 0.00 0.00 68 1013.9
20260505090756 15 144 4.8 9.7 0.00 0.00 0.00 66 1013.8
20260505090310 15 194 3.2 6.4 0.00 0.00 0.00 67 1013.9
20260505085810 15 355 1.6 3.2 0.00 0.00 0.00 69 1013.8
20260505085309 15 342 3.2 4.8 0.00 0.00 0.00 68 1013.9
20260505084809 15 314 1.6 3.2 0.00 0.00 0.00 68 1013.9
20260505084308 15 311 3.2 4.8 0.00 0.00 0.00 70 1014.0
20260505083808 15 349 3.2 4.8 0.00 0.00 0.00 72 1014.0
20260505083308 14 68 0.0 3.2 0.00 0.00 0.00 71 1013.9
20260505082757 14 62 3.2 3.2 0.00 0.00 0.00 70 1014.0
20260505082311 15 105 1.6 3.2 0.00 0.00 0.00 67 1013.9
20260505081756 16 99 3.2 4.8 0.00 0.00 0.00 66 1014.1
20260505081256 16 81 1.6 4.8 0.00 0.00 0.00 70 1014.0
20260505080810 15 79 6.4 8.0 0.00 0.00 0.00 72 1014.0
20260505080315 15 22 1.6 3.2 0.00 0.00 0.00 76 1014.1
20260505075800 13 25 1.6 4.8 0.00 0.00 0.00 78 1013.9
20260505075259 13 352 1.6 3.2 0.00 0.00 0.00 78 1014.1
20260505074759 13 342 0.0 1.6 0.00 0.00 0.00 81 1014.2
20260505074314 13 342 0.0 3.2 0.00 0.00 0.00 82 1014.1
20260505073818 13 347 3.2 6.4 0.00 0.00 0.00 83 1014.3
20260505073308 12 322 3.2 8.0 0.00 0.00 0.00 84 1014.1
20260505072757 12 325 3.2 6.4 0.00 0.00 0.00 85 1014.1
20260505072312 12 333 3.2 6.4 0.00 0.00 0.00 85 1014.2
20260505071756 12 3 0.0 1.6 0.00 0.00 0.00 85 1014.1
20260505071255 11 12 3.2 4.8 0.00 0.00 0.00 87 1014.0
20260505070755 11 338 0.0 3.2 0.00 0.00 0.00 88 1014.2
20260505070309 11 338 3.2 3.2 0.00 0.00 0.00 89 1014.1
20260505065809 11 359 1.6 3.2 0.00 0.00 0.00 89 1014.0
20260505065309 11 10 3.2 4.8 0.00 0.00 0.00 89 1014.2
20260505064808 11 359 3.2 4.8 0.00 0.00 0.00 90 1014.2
20260505064308 11 241 3.2 4.8 0.00 0.00 0.00 90 1014.2
20260505063808 11 285 0.0 1.6 0.00 0.00 0.00 90 1014.1
20260505063307 11 291 0.0 0.0 0.00 0.00 0.00 91 1014.1
20260505062807 11 293 1.6 3.2 0.00 0.00 0.00 91 1014.2
20260505062306 11 287 3.2 3.2 0.00 0.00 0.00 91 1014.1
20260505061806 11 317 1.6 3.2 0.00 0.00 0.00 92 1014.1
20260505061306 10 328 3.2 6.4 0.00 0.00 0.00 92 1014.0
20260505060806 10 337 1.6 3.2 0.00 0.00 0.00 92 1014.2
20260505060305 10 328 1.6 3.2 0.00 0.00 0.00 92 1014.1
20260505055805 10 334 1.6 3.2 0.00 0.00 0.00 92 1014.1
20260505055304 10 351 3.2 4.8 0.00 0.00 0.00 92 1014.2
20260505054804 10 315 0.0 3.2 0.00 0.00 0.00 92 1013.9
20260505054304 10 315 1.6 3.2 0.00 0.00 0.00 92 1014.1
20260505053804 10 180 0.0 1.6 0.00 0.00 0.00 92 1014.1
20260505053318 10 180 0.0 0.0 0.00 0.00 0.00 92 1013.9
20260505052808 10 180 0.0 1.6 0.00 0.00 0.00 92 1014.1
20260505052308 10 180 0.0 0.0 0.00 0.00 0.00 92 1014.0
20260505051807 10 180 0.0 0.0 0.00 0.00 0.00 92 1013.9
20260505051307 10 180 0.0 1.6 0.00 0.00 0.00 92 1013.9
20260505050807 10 90 0.0 1.6 0.00 0.00 0.00 92 1014.1
20260505050306 10 90 0.0 1.6 0.00 0.00 0.00 92 1014.3
20260505041307 10 180 0.0 1.6 0.00 0.00 0.00 92 1014.1
20260505040807 10 180 0.0 0.0 0.00 0.00 0.00 92 1014.3
20260505040307 10 180 0.0 0.0 0.00 0.00 0.00 92 1014.1
20260505035805 10 180 0.0 0.0 0.00 0.00 0.00 92 1014.3
20260505035450 10 180 0.0 0.0 0.00 0.00 0.00 92 1014.1
20260505034805 10 180 0.0 1.6 0.00 0.00 0.00 92 1014.2
20260505034304 10 180 0.0 1.6 0.00 0.00 0.00 92 1014.3
20260505033819 10 315 0.0 0.0 0.00 0.00 0.00 92 1014.3
20260505033308 10 315 0.0 1.6 0.00 0.00 0.00 92 1014.2
20260505032808 10 315 0.0 1.6 0.00 0.00 0.00 92 1014.3
20260505032308 10 315 0.0 1.6 0.00 0.00 0.00 92 1014.3
20260505031807 10 315 0.0 3.2 0.00 0.00 0.00 92 1014.3
20260505031307 10 315 1.6 3.2 0.00 0.00 0.00 92 1014.2
20260505030757 10 180 0.0 1.6 0.00 0.00 0.00 92 1014.3
20260505030311 10 225 0.0 0.0 0.00 0.00 0.00 91 1014.2
20260505025755 10 225 0.0 1.6 0.00 0.00 0.00 91 1014.3
20260505025255 10 225 0.0 0.0 0.00 0.00 0.00 91 1014.2
20260505024810 10 225 0.0 0.0 0.00 0.00 0.00 91 1014.2
20260505024314 10 225 0.0 0.0 0.00 0.00 0.00 91 1014.3
20260505023804 10 225 3.2 3.2 0.00 0.00 0.00 90 1014.4
20260505023303 10 225 0.0 1.6 0.00 0.00 0.00 91 1014.4
20260505022803 10 225 0.0 1.6 0.00 0.00 0.00 90 1014.2
20260505022304 10 225 0.0 0.0 0.00 0.00 0.00 90 1014.2
20260505021802 10 225 0.0 0.0 0.00 0.00 0.00 90 1014.1
20260505021317 10 238 0.0 0.0 0.00 0.00 0.00 89 1014.2
20260505020806 10 238 1.6 3.2 0.00 0.00 0.00 89 1014.3
20260505020306 10 270 0.0 1.6 0.00 0.00 0.00 89 1014.3
20260505015806 10 270 0.0 0.0 0.00 0.00 0.00 89 1014.3
20260505015305 10 270 0.0 1.6 0.00 0.00 0.00 89 1014.3
20260505014755 11 287 1.6 3.2 0.00 0.00 0.00 89 1014.2
20260505014310 11 45 0.0 1.6 0.00 0.00 0.00 88 1014.3
20260505013809 11 45 0.0 1.6 0.00 0.00 0.00 88 1014.5
20260505013309 11 18 0.0 1.6 0.00 0.00 0.00 87 1014.6
20260505012809 11 18 0.0 1.6 0.00 0.00 0.00 87 1014.7
20260505012308 11 18 1.6 3.2 0.00 0.00 0.00 86 1014.7
20260505011808 11 315 0.0 0.0 0.00 0.00 0.00 86 1014.5
20260505011308 11 315 0.0 1.6 0.00 0.00 0.00 86 1014.8
20260505010807 11 315 1.6 3.2 0.00 0.00 0.00 86 1014.7
20260505010307 11 180 0.0 3.2 0.00 0.00 0.00 86 1014.9
20260505005806 11 180 0.0 0.0 0.00 0.00 0.00 85 1014.9
20260505005306 11 180 0.0 3.2 0.00 0.00 0.00 85 1014.8
20260505004755 12 180 0.0 1.6 0.00 0.00 0.00 84 1014.9
20260505004325 12 45 0.0 1.6 0.00 0.00 0.00 84 1015.1
20260505003759 12 45 0.0 3.2 0.00 0.00 0.00 84 1015.1
20260505003258 12 45 0.0 0.0 0.00 0.00 0.00 84 1015.1
20260505002758 12 45 0.0 0.0 0.00 0.00 0.00 83 1015.0
20260505002313 12 45 0.0 0.0 0.00 0.00 0.00 83 1015.0
20260505001758 12 45 1.6 3.2 0.00 0.00 0.00 83 1015.2
20260505001257 12 45 1.6 3.2 0.00 0.00 0.00 83 1015.0
20260505000757 12 180 0.0 0.0 0.00 0.00 0.00 83 1015.2
20260505000311 12 180 0.0 3.2 0.00 0.00 0.00 83 1015.2
20260504235756 12 180 0.0 1.6 0.00 0.00 0.00 83 1015.2
20260504235255 12 135 0.0 3.2 0.00 0.00 0.00 83 1015.1
20260504234754 12 135 0.0 1.6 0.00 0.00 0.00 83 1015.4
20260504234309 12 135 0.0 1.6 0.00 0.00 0.00 83 1015.3
20260504233753 12 135 0.0 0.0 0.00 0.00 0.00 82 1015.2
20260504233252 12 135 0.0 3.2 0.00 0.00 0.00 82 1015.1
20260504232807 12 128 3.2 3.2 0.00 0.00 0.00 82 1015.4
20260504232312 12 103 0.0 3.2 0.00 0.00 0.00 82 1015.3
20260504231801 12 98 0.0 3.2 0.00 0.00 0.00 82 1015.4
20260504231301 12 98 3.2 6.4 0.00 0.00 0.00 82 1015.3
20260504230800 12 57 0.0 1.6 0.00 0.00 0.00 82 1015.2
20260504230315 12 58 3.2 8.0 0.00 0.00 0.00 82 1015.2
20260504225759 12 42 3.2 6.4 0.00 0.00 0.00 82 1015.2
20260504225314 12 38 1.6 3.2 0.00 0.00 0.00 82 1015.2
20260504224804 12 52 0.0 3.2 0.00 0.00 0.00 82 1015.2
20260504224304 12 49 3.2 6.4 0.00 0.00 0.00 82 1015.3
20260504223803 12 53 1.6 3.2 0.00 0.00 0.00 82 1015.2
20260504223303 12 18 1.6 3.2 0.00 0.00 0.00 82 1015.2
20260504222818 13 12 0.0 3.2 0.00 0.00 0.00 82 1015.4
20260504222307 13 15 3.2 6.4 0.00 0.00 0.00 82 1015.3
20260504221806 13 341 1.6 3.2 0.00 0.00 0.00 81 1015.4
20260504221306 13 347 0.0 1.6 0.00 0.00 0.00 81 1015.4
20260504220820 13 8 3.2 6.4 0.00 0.00 0.00 81 1015.3
20260504220310 13 81 1.6 3.2 0.00 0.00 0.00 81 1015.6
20260504215809 13 60 1.6 3.2 0.00 0.00 0.00 81 1015.4
20260504215309 13 64 0.0 1.6 0.00 0.00 0.00 81 1015.5
20260504214808 13 61 3.2 4.8 0.00 0.00 0.00 81 1015.6
20260504214323 13 68 3.2 6.4 0.00 0.00 0.00 81 1015.5
20260504213813 13 49 3.2 6.4 0.00 0.00 0.00 81 1015.5
20260504213302 13 23 3.2 4.8 0.00 0.00 0.00 81 1015.6
20260504212817 13 60 0.0 1.6 0.00 0.00 0.00 81 1015.7
20260504212307 13 59 3.2 6.4 0.00 0.00 0.00 81 1015.6
20260504211806 13 77 0.0 3.2 0.00 0.00 0.00 81 1015.6
20260504211320 13 58 0.0 1.6 0.00 0.00 0.00 81 1015.5
20260504210810 13 58 1.6 3.2 0.00 0.00 0.00 81 1015.6
20260504210314 13 60 4.8 6.4 0.00 0.00 0.00 81 1015.6
20260504205804 13 3 1.6 3.2 0.00 0.00 0.00 81 1015.6
20260504205304 13 352 0.0 1.6 0.00 0.00 0.00 81 1015.6
20260504204803 13 352 4.8 6.4 0.00 0.00 0.00 81 1015.5
20260504204317 13 263 0.0 3.2 0.00 0.00 0.00 81 1015.7
20260504203802 13 269 1.6 3.2 0.00 0.00 0.00 81 1015.5
20260504203301 13 264 3.2 3.2 0.00 0.00 0.00 81 1015.7
20260504202801 13 273 0.0 1.6 0.00 0.00 0.00 81 1015.6
20260504202316 13 273 0.0 3.2 0.00 0.00 0.00 81 1015.6
20260504201800 13 284 3.2 6.4 0.00 0.00 0.00 81 1015.5
20260504201300 13 357 1.6 3.2 0.00 0.00 0.00 80 1015.4
20260504200815 13 344 3.2 3.2 0.00 0.00 0.00 80 1015.4
20260504200304 13 7 3.2 6.4 0.00 0.00 0.00 79 1015.4
20260504195803 13 352 0.0 1.6 0.00 0.00 0.00 79 1015.3
20260504195304 14 353 3.2 4.8 0.00 0.00 0.00 79 1015.4
20260504194817 14 10 3.2 3.2 0.00 0.00 0.00 78 1015.3
20260504194307 14 23 1.6 3.2 0.00 0.00 0.00 78 1015.1
20260504193806 14 34 1.6 3.2 0.00 0.00 0.00 77 1015.0
20260504193306 14 37 3.2 4.8 0.00 0.00 0.00 76 1014.9
20260504192806 14 40 3.2 3.2 0.00 0.00 0.00 75 1014.9
20260504192305 15 52 3.2 4.8 0.00 0.00 0.00 75 1014.8
20260504191805 15 73 3.2 6.4 0.00 0.00 0.00 73 1014.9
20260504191304 15 62 0.0 1.6 0.00 0.00 0.00 73 1014.8
20260504190804 15 62 3.2 4.8 0.00 0.00 0.00 72 1014.7
20260504190304 15 49 3.2 4.8 0.00 0.00 0.00 72 1014.7
20260504185818 16 22 3.2 6.4 0.00 0.00 0.00 70 1014.6
20260504185308 16 45 3.2 4.8 0.00 0.00 0.00 70 1014.7
20260504184808 16 45 1.6 3.2 0.00 0.00 0.00 69 1014.5
20260504184307 16 45 0.0 3.2 0.00 0.00 0.00 69 1014.5
20260504183806 17 45 1.6 3.2 0.00 0.00 0.00 68 1014.6
20260504183305 17 57 1.6 3.2 0.00 0.00 0.00 68 1014.3
20260504182805 17 59 0.0 3.2 0.00 0.00 0.00 69 1014.5
20260504182304 16 58 0.0 1.6 0.00 0.00 0.00 70 1014.3
20260504181804 16 45 0.0 1.6 0.00 0.00 0.00 70 1014.3
20260504181319 16 45 3.2 4.8 0.00 0.00 0.00 70 1014.3
20260504180809 16 50 3.2 6.4 0.00 0.00 0.00 71 1014.4
20260504180323 16 47 3.2 6.4 0.00 0.00 0.00 72 1014.3
20260504175803 15 53 1.6 6.4 0.00 0.00 0.00 72 1014.5
20260504175304 15 62 4.8 8.0 0.00 0.00 0.00 71 1014.3
20260504174802 16 89 4.8 8.0 0.00 0.00 0.00 68 1014.4
20260504174317 16 107 3.2 6.4 0.00 0.00 0.00 68 1014.4
20260504173801 17 110 6.4 8.0 0.00 0.00 0.00 66 1014.5
20260504173301 17 132 3.2 9.7 0.00 0.00 0.00 65 1014.5
20260504172801 17 98 4.8 8.0 0.00 0.00 0.00 66 1014.6
20260504172315 17 52 3.2 6.4 0.00 0.00 0.00 68 1014.6
20260504171805 17 27 1.6 4.8 0.00 0.00 0.00 68 1014.9
20260504171304 16 44 3.2 6.4 0.00 0.00 0.00 71 1014.9
20260504170804 16 59 3.2 6.4 0.00 0.00 0.00 72 1015.0
20260504170304 15 32 3.2 6.4 0.00 0.00 0.00 73 1014.8
20260504160314 15 92 3.2 6.4 0.00 0.00 0.00 73 1014.8
20260504150810 15 32 0.0 3.2 0.00 0.00 0.00 73 1015.0
20260504150309 15 32 4.8 8.0 0.00 0.00 0.00 73 1014.9